Location: Melara
(45.0500°N, 11.1833°E)
Time: 20:31:22
(UTC+00:00)

Cosmos 1603 - Pass Details

Date: 26 May 2022
Orbit: 829 x 861 km, 71.0° (Epoch: 02 July)

Event Time Altitude Azimuth Distance (km) Brightness Sun altitude
Exits shadow 02:19:25 11° 194° (SSW) 2,402 5.5 -11.3°
Maximum altitude 02:24:52 70° 112° (ESE) 891 3.9 -10.7°
Drops below altitude 10° 02:30:31 10° 30° (NNE) 2,475 7.5 -9.9°
Sets 02:32:59 0° 28° (NNE) 3,419 8.5 -9.6°
